Content
SEND FEEDBACK

Daily
Averages
Monthly
Summary
United States of America

PUT IN BAY, OHIO


Home > North America > United States > Ohio
Elevation: 171 meters     Latitude: 41 39N     Longitude: 082 48W

WEATHER
 
SELECT A DAY
Number of Records: 122,510;   Date Range: 12/10/00 - 7/30/14
 
SHARE

PRINT THIS DATA

[ ← Previous Day ]
WEATHER ALMANAC - 30 APRIL, 2013
[ Next Day → ]
[ °F ]   °C
Weather ElementAverageHighLow
Temperature14.8 °C19 °C (4:00 pm)11.3 °C (7:00 am)
Dewpoint11.6 °C12.6 °C (3:00 pm)9.5 °C (11:00 pm)
Humidity81.3 %96 % (7:00 am)60 % (2:00 pm)
Barometer1016.6 hPa1019 hPa (12:00 pm)1014.2 hPa (1:00 am)
Wind Speed11.9 km/h16.7 km/h (9:00 am)
Wind Gust31.5 km/h (4:00 pm)
Weather ElementAverage
Wind DirectionSSE (164.1 °)

Weather ElementTotal
Precipitation---
Heating Degree Days3.2 (Base 18.3)
Growing Degree Days5.2 (Base 10)
Averaged from 27 records on 30 April, 2013
WEATHER CONDITIONS BREAKOUT
WIND DIRECTION BREAKOUT
WEATHER BY HOUR - 30 APRIL, 2013
[ °F ]   °C
Local TimeTemperatureDewpointHumidityBarometerVisibilityWind DirectionWind SpeedGust SpeedPrecipitationEventsConditions
1:00 AM13.2 °C12.3 °C94 %1014.2 hPaSSW (200°)9.3 km/h
2:00 AM13.3 °C12.2 °C89 %1014.6 hPaSouth (190°)9.3 km/h
2:00 AM13.4 °C12 °C91 %1014.6 hPaSouth (190°)9.3 km/h
3:00 AM13.1 °C11.7 °C91 %1014.6 hPaSSW (200°)11.1 km/h
4:00 AM12.6 °C11.5 °C93 %1015.2 hPaSouth (190°)11.1 km/h
5:00 AM12 °C11.1 °C94 %1015.6 hPaSouth (180°)11.1 km/h
6:00 AM11.7 °C10.9 °C95 %1015.6 hPaSouth (190°)11.1 km/h
7:00 AM11.3 °C10.7 °C96 %1015.6 hPaSouth (170°)13 km/h
8:00 AM12.2 °C11.7 °C96 %1016.6 hPaSouth (170°)14.8 km/h
8:00 AM12.5 °C11.8 °C96 %1016.6 hPaSouth (170°)14.8 km/h
9:00 AM13.9 °C12.3 °C90 %1017.3 hPaSouth (190°)16.7 km/h
10:00 AM15 °C12.5 °C85 %1017.6 hPaSouth (190°)16.7 km/h
11:00 AM16.8 °C12.1 °C74 %1017.9 hPaSouth (190°)16.7 km/h
12:00 PM17.9 °C12.3 °C70 %1019 hPaSSW (210°)11.1 km/h
1:00 PM18 °C12.2 °C69 %1019 hPaSouth (170°)9.3 km/h
2:00 PM18.3 °C12.2 °C60 %1017.3 hPaSE (130°)14.8 km/h
2:00 PM18.3 °C12.4 °C68 %1017.3 hPaSE (130°)14.8 km/h
3:00 PM18.7 °C12.6 °C68 %1016.9 hPaSE (140°)13 km/h
4:00 PM19 °C12.4 °C65 %1016.3 hPaSE (140°)16.7 km/h31.5 km/h
5:00 PM18.1 °C11.5 °C65 %1016.3 hPaSSE (150°)16.7 km/h29.6 km/h
6:00 PM16.7 °C11.4 °C71 %1016.3 hPaSE (130°)11.1 km/h
7:00 PM16.4 °C11.4 °C72 %1016.3 hPaSE (130°)9.3 km/h
8:00 PM14.4 °C10.6 °C71 %1016.6 hPaSE (140°)11.1 km/h
8:00 PM14.6 °C10.7 °C77 %1016.6 hPaSE (140°)11.1 km/h
9:00 PM13.4 °C10.4 °C82 %1017.3 hPaSE (130°)7.4 km/h
10:00 PM12.8 °C9.9 °C83 %1017.9 hPaSE (130°)7.4 km/h
11:00 PM11.3 °C9.5 °C89 %1018.3 hPaSE (140°)3.7 km/h
Hourly data recorded from CXHA, located 0 kilometers away from Put In Bay, Ohio







STORIES FROM OUR PARTNERS